Tracking 29892 objects as of 21-Nov-2024
HD Live streaming from Space Station
objects crossing your sky now

COSMOS 1755

Track COSMOS 1755 now!
10-day predictions
COSMOS 1755 is classified as:


NORAD ID: 16765
Int'l Code: 1986-042H
Perigee: 1,431.3 km
Apogee: 1,475.9 km
Inclination: 74.0 °
Period: 114.8 minutes
Semi major axis: 7824 km
RCS: 0.6969 m2 (medium)
Launch date: June 6, 1986
Source: Commonwealth of Independent States (former USSR) (CIS)
Launch site: PLESETSK MISSILE AND SPACE COMPLEX (PKMTR)
Your satellite tracking list
Your tracking list is empty




NASA's NSSDC Master Catalog

Two Line Element Set (TLE):
1 16765U 86042H   24325.64149979  .00000004  00000-0  12245-3 0  9991
2 16765  74.0183 213.4186 0028523  81.9520 292.8971 12.54330813761057
Source of the keplerian elements: AFSPC